STARLINK-1813, 46711

Orbit data source: Space-Track

STARLINK-1813, 46711 is a payload satellite owned by SpaceX/Seattle (US) in LEO that was launched on Sun, 18 Oct 2020 UTC via an FALCON 9 launch vehicle from the Air Force Eastern Test Range (AFETR). Payloads include a variety of satellites, spacecraft, and rockets equipped with specific instruments for various scientific and technological missions. These include communications satellites like Starlink; space stations such as the ISS; scientific satellites like the Hubble; Earth observation satellites from companies like Planet Labs, Umbra, and HawkEye 360; GPS; miniature CubeSats for education and research; and military/defense satellites.

Not visible in the next 10 days
STARLINK-1813 details
Identifier
46711, 2020-073AT
Orbit
LEO
Last TLE update10 hours ago
Origin
Flag of USSpaceX/Seattle (US)
ManufacturerSpaceX/Seattle
MissionPartially operational Commercial Communications
Bus & MotorSTARLINK, Unknown motor
Mass260 kg wet, ~248 kg dry
Launch date (UTC)
2020-10-18 (4 years ago)
Launch vehicle
FALCON 9
Launch site
Air Force Eastern Test Range (AFETR)
Object type
Payload
Rocket body
Debris
Shape & HBRBox + 1 Pan, 8.86 m
Radar Cross Section13.562 m², Large (>1 m²)

Expand to show TLE details & history

TLE from 10 hours ago
0 STARLINK-1813
1 46711U 20073AT  24361.25001157  .00453071  00000-0  16290-2 0  9998
2 46711  53.0453  31.3444 0008492  52.4317 127.2036 15.86993716  5994
Epoch: 2024-12-26T06:00Z
Definitive object data (Epoch: 2024-12-26T06:00:00.999Z)
Latitude0.14871°
Longitude25.99689°
Altitude315.044 km
Speed7.718 km/s
True Right ascension14h 04m 55s
True Declination0° 08' 52"
Sunlit
Object was in daylight at TLE epoch
Visualization TLE readout
Latitude47.45521°
Longitude-30.66536°
Altitude311.996 km
Speed7.728 km/s
Apparent Right ascension06h 48m 38s
Apparent Declination7° 48' 01"
Sunlit
Object is in full shadow
Visualization observer readout
Local Sidereal Time15:40:05
Azimuth306.458° NW
Elevation-25.456°
Doppler factor1
Orbital elements
Apogee altitude316.679 km
Perigee altitude305.318 km
Semi-major axis6,689.135 km
Eccentricity0.0008492
Inclination53.0453°
RAAN31.3444°
Arg. of periapsis52.4317°
True anomaly127.28106°
Mean anomaly127.2036°
Eccentric anomaly127.24233°
Mean motion3.96724 °/min
BSTAR0.001629
Orbital period90.74 mins
Loading maneuver chart data...
Loading historical data...
Loading historical data...
Loading historical data...
Loading historical data...
Loading historical data...
Loading historical data...
Loading historical data...

STARLINK-1813 Visibility forecast

Observer location: undefined°, undefined

STARLINK-1813 is not visible in the next 10 days
Span
Click to sort rows by Start time (UTC) header in descending order
Start Az.
Max El. time (UTC)
Max El. Az.
Max El.
End time (UTC)
End Az.
|